Location: Home
(42.5358°N, 72.7383°W)
Time: 06:53:35
(UTC-05:00)

Explorer 11/Cluster Stage 4 - Pass Details

Date: 02 December 2021
Orbit: 467 x 1255 km, 28.8° (Epoch: 25 January)

Event Time Altitude Azimuth Distance (km) Brightness Sun altitude
Rises 03:48:41 0° 241° (WSW) 3,786 - -35.0°
Reaches altitude 10° 03:51:40 10° 230° (SW) 2,944 - -34.4°
Exits shadow 03:57:15 28° 181° (S) 2,051 8.6 -33.4°
Maximum altitude 03:57:48 28° 174° (S) 2,051 8.6 -33.3°
Drops below altitude 10° 04:04:28 10° 119° (ESE) 3,215 10.4 -32.1°
Sets 04:07:53 0° 109° (ESE) 4,192 11.3 -31.4°
